Regional Weather Roundup
Issued by NWS

Home | Current Version | Previous Version | Graphics & Text | Print | Product List | Glossary On
Versions: 1 2 3 4 5 6 7 8 9 10 11 12 13 14 15 16 17 18 19 20 21 22 23 24 25 26 27 28 29 30 31 32 33 34 35 36 37 38 39 40 41 42 43 44 45 46 47 48 49 50
000
ASUS43 KLOT 262206
RWRIL

ILLINOIS REGIONAL WEATHER ROUNDUP
NATIONAL WEATHER SERVICE CHICAGO/ROMEOVILLE IL
400 PM CST FRI DEC 26 2014

NOTE: "FAIR" INDICATES FEW OR NO CLOUDS BELOW 12,000 FEET WITH NO
SIGNIFICANT WEATHER AND/OR OBSTRUCTIONS TO VISIBILITY.

* THESE STATIONS ARE NOT UNDER NWS QUALITY CONTROL. THEY ALSO MAY NOT
  REPORT WEATHER SUCH AS PRECIPITATION OR FOG.

ILZ001-002-007-009-015-016-024-262300-
NORTHWEST ILLINOIS

CITY           SKY/WX    TMP DP  RH WIND       PRES   REMARKS
MOLINE         PTCLDY    51  37  58 S7        29.95S
STERLING*      CLOUDY    52  39  62 CALM      29.97S
SAVANNA*       MOCLDY    48  36  63 CALM      29.95F
$$

ILZ003-004-008-010-011-017-018-262300-
NORTH CENTRAL ILLINOIS

CITY           SKY/WX    TMP DP  RH WIND       PRES   REMARKS
ROCKFORD       MOCLDY    49  37  63 SW7       29.99S
FREEPORT*      PTCLDY    44  37  74 S6        29.98F
ROCHELLE*      CLEAR     48  41  79 S9        29.98S
DE KALB*       PTCLDY    45  38  78 S7        29.99S
PERU*          PTCLDY    49  40  69 S8        29.99S
$$

ILZ005-006-012>014-019>023-262300-
NORTHEAST ILLINOIS

CITY           SKY/WX    TMP DP  RH WIND       PRES   REMARKS
CHICAGO-OHARE  MOCLDY    47  38  71 S12       29.99R
CHICAGO-MIDWAY MOCLDY    50  39  66 S7        30.01R
AURORA         PTCLDY    49  38  65 S8        29.99S
LANSING*       CLOUDY    49  42  77 S8        30.02S
JOLIET*        PTCLDY    49  40  71 S3        30.00F
WAUKEGAN       MOCLDY    45  36  70 S7        29.98S
DUPAGE AIRPORT PTCLDY    47  38  71 S8        29.99R
KANKAKEE*      MOCLDY    50  44  79 S10       30.03S
WHEELING       PTCLDY    48  38  68 S10       30.01R
MORRIS*        PTCLDY    48  42  79 S7        29.99F
ROMEOVILLE*    PTCLDY    48  39  72 SW7       30.00F
NORTHERLY ISL    N/A     49  38  65 S8          N/A
$$

LMZ740>746-262300-
SOUTHERN LAKE MICHIGAN

STATION/POSITION SKY/WX   TEMP    WIND        PRES    VSBY  WAVE
                          AIR SEA DIR/SP/G                  HT/PER
                          (F)     (DEG/KT/KT) (MB)    (MI)  (FT/S)
WAUKEGAN HARBOR            48     210/  8/ 12   N/A
HARRISON CRIB              48     200/ 10/ 11   N/A
BURNHAM HARBOR             49     200/  7/ 13   N/A
CALUMET HARBOR             49     200/  8/ 12 1015.0S
MICHIGAN CITY              50     170/ 10/ 12   N/A
$$

ILZ025>027-034>036-040-047-049-050-058-095>099-262300-
WEST-CENTRAL ILLINOIS

CITY           SKY/WX    TMP DP  RH WIND       PRES   REMARKS
QUINCY         CLOUDY    54  42  64 S3        29.96S
GALESBURG*     PTCLDY    51  41  69 S8        29.96S
MACOMB*        PTCLDY    53  42  68 SW8       29.99F
JACKSONVILLE*  PTCLDY    56  44  63 S8        29.99S
PITTSFIELD*    MOCLDY    56  45  67 S7        29.99S
$$

ILZ028>032-037-038-041>044-048-051>054-059>061-262300-
CENTRAL ILLINOIS

CITY           SKY/WX    TMP DP  RH WIND       PRES   REMARKS
PONTIAC        PTCLDY    51  44  77 S13       30.02S
BLOOMINGTON    PTCLDY    50  44  79 S13       30.02S
DECATUR        PTCLDY    52  43  71 S9        30.04F
PEORIA         PTCLDY    52  41  66 S5        29.99S
LACON*         PTCLDY    49  38  66 S5        29.99S
LINCOLN*       PTCLDY    53  44  71 S10       30.02R
SPRINGFIELD    PTCLDY    53  43  68 S13       30.02S
TAYLORVILLE    PTCLDY    50  43  76 S10G16    30.03S
$$

ILZ033-039-045-046-055>057-062-063-262300-
EAST-CENTRAL ILLINOIS

CITY           SKY/WX    TMP DP  RH WIND       PRES   REMARKS
CHAMPAIGN      PTCLDY    50  43  77 S14       30.05S
DANVILLE*      CLOUDY    49  42  79 S13       30.04S
MATTOON        MOCLDY    51  43  74 S9        30.06S
PARIS*         MOCLDY    49  45  86 S8        30.09R
$$

ILZ079-100>102-262300-
SOUTHWEST ILLINOIS

CITY           SKY/WX    TMP DP  RH WIND       PRES   REMARKS
ALTON          PTCLDY    57  43  58 S12       30.02S
BELLEVILLE     CLEAR     55  45  70 S14       30.04R
CAHOKIA*       PTCLDY    57  45  64 S14       30.03R
SPARTA*        MOCLDY    52  44  73 S15       30.08R
$$

ILZ064>066-069>071-074>076-080>082-084>086-088>090-092>094-262300-
SOUTH-CENTRAL ILLINOIS

CITY           SKY/WX    TMP DP  RH WIND       PRES   REMARKS
CARBONDALE     MOCLDY    53  42  66 S15       30.11S
CAIRO*         CLOUDY    56  43  62 SE8       30.14S
EFFINGHAM*     MOCLDY    55  40  57 S9G16     30.08S
MARION         MOCLDY    54  45  71 S12       30.12S
MT. VERNON     PTCLDY    54  43  66 S21       30.11R
CENTRALIA*     PTCLDY    52  44  73 S12       30.08R
SALEM*         PTCLDY    55  45  68 S10       30.08S
METROPOLIS*    CLOUDY    56  44  64 S10       30.14R
$$

ILZ067-068-072-073-078-083-087-091-262300-
SOUTHEAST ILLINOIS

CITY           SKY/WX    TMP DP  RH WIND       PRES   REMARKS
LAWRENCEVILLE  PTCLDY    53  43  68 S13       30.12S
FLORA*         PTCLDY    53  44  71 S13       30.10S
FAIRFIELD*     CLEAR     52  44  72 S14       30.10S
HARRISBURG*    PTCLDY    55  43  64 S10G17    30.13S
ROBINSON*      MOCLDY    53  43  69 S15       30.11S
CARMI*         PTCLDY    55  46  71 S12       30.13R
$$

ABBREVIATIONS USED IN REMARKS
   TC - TEMPERATURE IN CELSIUS
  WCI - WIND CHILL INDEX
   HX - HEAT INDEX
  VSB - VISIBILITY
$$




USA.gov is the U.S. government's official web portal to all federal, state and local government web resources and services.